Weather History for Lambertville, MI

Change the Weather History Date:

Wednesday, February 13, 2013

  Actual Average (KTOL) Record (KTOL)
Temperature  
Mean Temperature 33 °F 28 °F  
Max Temperature 39 °F 35 °F 66 °F (1938)
Min Temperature 27 °F 20 °F -12 °F (1905)
Degree Days  
Heating Degree Days 32 37  
Month to date heating degree days 499  
Since 1 July heating degree days 4048  
Cooling Degree Days 0 0  
Month to date cooling degree days 0  
Year to date cooling degree days 0  
Moisture  
Dew Point 23 °F    
Average Humidity 70    
Maximum Humidity 82    
Minimum Humidity 53    
Precipitation  
Precipitation 0.00 in 0.07 in 0.61 in (1991)
Month to date precipitation 0.91  
Year to date precipitation 2.96  
Snow  
Snow 0.00 in 0.30 in - ()
Month to date snowfall 4.7  
Since 1 July snowfall 25.8  
Snow Depth -    
Sea Level Pressure  
Sea Level Pressure 29.83 in    
Wind  
Wind Speed 4 mph (WSW)    
Max Wind Speed 9 mph    
Max Gust Speed -    
Visibility 10 miles    
Events      
T = Trace of Precipitation, MM = Missing Value Source: NWS Daily Summary

Daily Weather History Graph

Daily Weather History Graph

Search for Another Location

Airport:

Trip Planner

Search our weather history database for the weather conditions in past years. The results will help you decide how hot, cold, wet, or windy it might be!

Date:

Astronomy

Feb. 13, 2013 Rise Set
Actual Time 7:32 AM EST 6:05 PM EST
Civil Twilight 7:03 AM EST 6:34 PM EST
Nautical Twilight 6:31 AM EST 7:07 PM EST
Astronomical Twilight 5:58 AM EST 7:39 PM EST
Moon 8:57 AM EST (2/13) 10:12 PM EST (2/13)
Length of Visible Light 11h 30m
Length of Day
10h 33m
Waxing Crescent, 13% of the Moon is Illuminated
Feb 13
Waxing Crescent
Feb 17
First Quarter
Feb 25
Full
Mar 4
Last Quarter
Mar 11
New

Hourly Weather History & Observations

Time (EST) Temp. Windchill Dew Point Humidity Pressure Visibility Wind Dir Wind Speed Gust Speed Precip Events Conditions
12:15 AM 31.1 °F 25.4 °F 22.1 °F 69% 29.93 in 10.0 mi NW 5.8 mph - N/A   Overcast
12:35 AM 30.7 °F 24.9 °F 21.7 °F 69% 29.93 in 10.0 mi WNW 5.8 mph - N/A   Overcast
12:55 AM 30.6 °F 25.8 °F 21.9 °F 70% 29.93 in 10.0 mi WNW 4.6 mph - N/A   Overcast
1:15 AM 30.2 °F 25.4 °F 21.9 °F 71% 29.92 in 10.0 mi WNW 4.6 mph - N/A   Overcast
1:35 AM 29.7 °F 23.7 °F 21.2 °F 71% 29.92 in 10.0 mi West 5.8 mph - N/A   Overcast
1:55 AM 29.7 °F 24.7 °F 21.4 °F 71% 29.91 in 10.0 mi WNW 4.6 mph - N/A   Overcast
2:15 AM 28.9 °F 22.8 °F 21.0 °F 72% 29.91 in 10.0 mi NNW 5.8 mph - N/A   Overcast
2:35 AM 28.9 °F 25.2 °F 21.2 °F 73% 29.91 in 10.0 mi NW 3.5 mph - N/A   Overcast
2:55 AM 29.1 °F - 21.0 °F 72% 29.91 in 10.0 mi Calm Calm - N/A   Overcast
3:15 AM 28.8 °F 21.7 °F 20.7 °F 72% 29.91 in 10.0 mi West 6.9 mph - N/A   Overcast
3:35 AM 28.6 °F 24.8 °F 21.0 °F 73% 29.90 in 10.0 mi NNW 3.5 mph - N/A   Overcast
3:55 AM 28.4 °F 24.6 °F 21.2 °F 74% 29.89 in 10.0 mi NNW 3.5 mph - N/A   Overcast
4:15 AM 28.8 °F - 21.2 °F 73% 29.89 in 10.0 mi Calm Calm - N/A   Overcast
4:35 AM 28.6 °F 23.5 °F 20.8 °F 73% 29.88 in 10.0 mi West 4.6 mph - N/A   Overcast
4:55 AM 28.4 °F 24.6 °F 20.8 °F 73% 29.88 in 10.0 mi WNW 3.5 mph - N/A   Overcast
5:15 AM 28.2 °F 24.4 °F 20.7 °F 73% 29.88 in 10.0 mi NW 3.5 mph - N/A   Overcast
5:35 AM 28.4 °F 23.3 °F 20.8 °F 73% 29.88 in 10.0 mi NW 4.6 mph - N/A   Overcast
5:55 AM 28.0 °F 24.2 °F 20.3 °F 73% 29.87 in 10.0 mi NW 3.5 mph - N/A   Overcast
6:15 AM 27.9 °F - 20.7 °F 74% 29.87 in 10.0 mi Calm Calm - N/A   Overcast
6:35 AM 28.0 °F - 20.8 °F 74% 29.87 in 10.0 mi Calm Calm - N/A   Overcast
6:55 AM 28.0 °F - 20.8 °F 74% 29.86 in 10.0 mi Calm Calm - N/A   Overcast
7:15 AM 27.5 °F 22.2 °F 20.8 °F 76% 29.86 in 10.0 mi North 4.6 mph - N/A   Overcast
7:35 AM 27.7 °F - 20.7 °F 75% 29.86 in 10.0 mi Calm Calm - N/A   Overcast
7:55 AM 27.5 °F - 20.3 °F 74% 29.85 in 10.0 mi Calm Calm - N/A   Overcast
8:15 AM 27.5 °F - 20.5 °F 75% 29.85 in 10.0 mi Calm Calm - N/A   Overcast
8:35 AM 27.7 °F - 20.3 °F 74% 29.84 in 10.0 mi Calm Calm - N/A   Overcast
8:55 AM 27.9 °F - 21.0 °F 75% 29.84 in 10.0 mi Calm Calm - N/A   Overcast
9:15 AM 27.9 °F 24.0 °F 20.7 °F 74% 29.83 in 10.0 mi SE 3.5 mph - N/A   Overcast
9:35 AM 28.6 °F 23.5 °F 21.2 °F 74% 29.82 in 10.0 mi NE 4.6 mph - N/A   Overcast
9:55 AM 28.4 °F - 20.5 °F 72% 29.83 in 10.0 mi Calm Calm - N/A   Overcast
10:15 AM 28.4 °F 24.6 °F 20.5 °F 72% 29.84 in 10.0 mi SE 3.5 mph - N/A   Overcast
10:35 AM 29.1 °F - 21.0 °F 72% 29.85 in 10.0 mi Calm Calm - N/A   Overcast
10:55 AM 30.2 °F 25.4 °F 21.2 °F 69% 29.84 in 10.0 mi South 4.6 mph - N/A   Overcast
11:15 AM 32.4 °F - 21.0 °F 63% 29.83 in 10.0 mi Calm Calm - N/A   Mostly Cloudy
11:35 AM 32.0 °F 28.7 °F 21.6 °F 65% 29.82 in 10.0 mi ENE 3.5 mph - N/A   Scattered Clouds
11:55 AM 33.6 °F 29.4 °F 22.1 °F 63% 29.81 in 10.0 mi WSW 4.6 mph - N/A   Clear
12:15 PM 35.2 °F 30.3 °F 22.3 °F 59% 29.81 in 10.0 mi West 5.8 mph - N/A   Clear
12:35 PM 35.6 °F 29.9 °F 23.7 °F 62% 29.80 in 10.0 mi NNW 6.9 mph - N/A   Clear
12:55 PM 34.9 °F 32.0 °F 24.3 °F 65% 29.80 in 10.0 mi NW 3.5 mph - N/A   Clear
1:15 PM 35.1 °F 30.1 °F 24.1 °F 64% 29.79 in 10.0 mi WSW 5.8 mph - N/A   Scattered Clouds
1:35 PM 35.4 °F 30.5 °F 23.9 °F 63% 29.79 in 10.0 mi WNW 5.8 mph - N/A   Scattered Clouds
1:55 PM 36.1 °F 29.9 °F 23.9 °F 61% 29.78 in 10.0 mi West 8.1 mph - N/A   Scattered Clouds
2:15 PM 36.5 °F 32.7 °F 23.4 °F 59% 29.77 in 10.0 mi SSW 4.6 mph - N/A   Clear
2:35 PM 36.3 °F - 23.2 °F 59% 29.76 in 10.0 mi Calm Calm - N/A   Clear
2:55 PM 38.3 °F 35.9 °F 24.3 °F 57% 29.75 in 10.0 mi West 3.5 mph - N/A   Clear
3:15 PM 37.9 °F 35.5 °F 23.7 °F 57% 29.75 in 10.0 mi West 3.5 mph - N/A   Clear
3:35 PM 38.5 °F 34.1 °F 23.0 °F 54% 29.75 in 10.0 mi WSW 5.8 mph - N/A   Clear
3:55 PM 39.2 °F 37.0 °F 23.5 °F 53% 29.75 in 10.0 mi West 3.5 mph - N/A   Clear
4:15 PM 38.7 °F 32.4 °F 23.0 °F 53% 29.75 in 10.0 mi West 9.2 mph - N/A   Clear
4:35 PM 37.8 °F 32.5 °F 23.5 °F 57% 29.75 in 10.0 mi West 6.9 mph - N/A   Clear
4:55 PM 37.0 °F 31.0 °F 24.4 °F 60% 29.75 in 10.0 mi SW 8.1 mph - N/A   Clear
5:15 PM 36.7 °F 32.9 °F 24.8 °F 62% 29.75 in 10.0 mi WSW 4.6 mph - N/A   Clear
5:35 PM 36.3 °F 30.8 °F 25.0 °F 63% 29.75 in 10.0 mi WSW 6.9 mph - N/A   Clear
5:55 PM 35.1 °F - 24.8 °F 66% 29.76 in 10.0 mi Calm Calm - N/A   Clear
6:15 PM 34.7 °F 31.8 °F 24.8 °F 67% 29.76 in 10.0 mi WSW 3.5 mph - N/A   Clear
6:35 PM 32.5 °F - 24.4 °F 72% 29.77 in 10.0 mi Calm Calm - N/A   Clear
6:55 PM 31.1 °F - 23.9 °F 75% 29.77 in 10.0 mi Calm Calm - N/A   Clear
7:15 PM 30.9 °F 27.5 °F 24.4 °F 77% 29.78 in 10.0 mi South 3.5 mph - N/A   Clear
7:35 PM 32.2 °F 26.7 °F 25.3 °F 76% 29.78 in 10.0 mi South 5.8 mph - N/A   Clear
7:55 PM 32.0 °F 25.6 °F 25.5 °F 77% 29.79 in 7.0 mi South 6.9 mph - N/A   Clear
8:15 PM 32.0 °F 25.6 °F 25.3 °F 76% 29.79 in 7.0 mi South 6.9 mph - N/A   Scattered Clouds
8:35 PM 31.6 °F 27.0 °F 25.3 °F 78% 29.79 in 7.0 mi South 4.6 mph - N/A   Scattered Clouds
8:55 PM 31.5 °F 25.8 °F 25.3 °F 78% 29.80 in 7.0 mi South 5.8 mph - N/A   Scattered Clouds
9:15 PM 31.1 °F 26.4 °F 25.2 °F 79% 29.79 in 7.0 mi South 4.6 mph - N/A   Scattered Clouds
9:35 PM 30.9 °F 25.2 °F 25.2 °F 79% 29.80 in 7.0 mi South 5.8 mph - N/A   Clear
9:55 PM 30.7 °F 26.0 °F 25.0 °F 79% 29.80 in 7.0 mi SSE 4.6 mph - N/A   Clear
10:15 PM 30.7 °F 24.1 °F 25.0 °F 79% 29.80 in 7.0 mi South 6.9 mph - N/A   Clear
10:35 PM 30.7 °F 24.9 °F 25.2 °F 80% 29.80 in 7.0 mi South 5.8 mph - N/A   Scattered Clouds
10:55 PM 30.9 °F 25.2 °F 25.3 °F 80% 29.80 in 7.0 mi South 5.8 mph - N/A   Scattered Clouds
11:15 PM 30.6 °F 25.8 °F 25.3 °F 81% 29.80 in 7.0 mi South 4.6 mph - N/A   Clear
11:35 PM 30.2 °F 25.4 °F 25.3 °F 82% 29.79 in 7.0 mi South 4.6 mph - N/A   Clear
11:55 PM 30.2 °F 25.4 °F 25.3 °F 82% 29.79 in 7.0 mi South 4.6 mph - N/A   Clear